DELTA 1 DEB, 23309

Orbit data source: Space-Track

DELTA 1 DEB, 23309 is space debris in SSO originally from a launch on Thu, 12 Jun 1975 UTC launched from the Air Force Western Test Range (AFWTR). Debris objects in space refer to the collection of defunct objects orbiting the Earth. Examples of debris include non-operational satellites, rocket bodies, and fragments generated from explosions, collisions, or faulty payload assembly.

Loading next visibility...
Identifier
23309, 1975-052JY
Orbit
SSO
Country
Flag of USUS
Related business
Manufacturer
Unknown
Mission
Spacecraft
Bus & Motor
Unknown
Mass
Unknown
Launch date (UTC)
1975-06-12 (50 years ago)
Launch vehicle
Unknown
Launch site
Air Force Western Test Range (AFWTR)
Object type
Payload
Rocket body
Debris
Shape & HBR
Unknown shape, 0.1 m
Radar Cross Section
Small (<0.1 m²)

Expand to show TLE details & history
Last TLE update: 4 days ago

TLE from 4 days ago
0 DELTA 1 DEB
1 23309U 75052JY  25285.69998718  .00000086  00000-0  44019-3 0  9990
2 23309  99.7085 188.8169 0392646 264.5140 118.7045 12.72385182594485
Epoch: 2025-10-12T16:47Z
TLE epoch observation values (Epoch: 2025-10-12T16:47:58.892Z)
Latitude
26.68573°
Longitude
-89.60103°
Altitude
1,530.409 km
Speed
7.031 km/s
True Right ascension
12h 15m 37s
True Declination
26° 33' 41"
Sunlit
Object was in daylight at epoch
Visualization orbit readout
Latitude
Unknown
Longitude
Unknown
Altitude
Unknown
Speed
Unknown
Apparent Right ascension
Unknown
Apparent Declination
Unknown
Sunlit
N/A
Visualization observer readout
Local Sidereal Time
12:57:14
Azimuth
Unknown
Elevation
Unknown
Doppler factor
Unknown
Orbital elements
Apogee altitude
1,673.853 km
Perigee altitude
1,065.426 km
Semi-major axis
7,747.777 km
Eccentricity
0.03926
Inclination
99.7085°
RAAN
188.8169°
Arg. of periapsis
264.514°
True anomaly
122.55709°
Mean anomaly
118.7045°
Eccentric anomaly
120.64011°
Mean motion
3.18257 °/min
Orbital period
113.12 mins
BSTAR
0.00044019
Loading maneuver chart data...
Computing Atmospheric mass density...

Documentation

Showing up to 5 results
|